Weather History for Chicago Executive, IL

Change the Weather History Date:

Thursday, May 23, 2013

  Actual Average Record
Temperature  
Mean Temperature 48 °F 61 °F  
Max Temperature 54 °F 72 °F 89 °F (2007)
Min Temperature 42 °F 50 °F 39 °F (2006)
Degree Days  
Heating Degree Days 17 6  
Month to date heating degree days 172 206  
Since 1 July heating degree days 6262 6319  
Cooling Degree Days 0 2  
Month to date cooling degree days 44 21  
Year to date cooling degree days 53 25  
Moisture  
Dew Point 43 °F    
Average Humidity 79    
Maximum Humidity 94    
Minimum Humidity 62    
Precipitation  
Precipitation 0.03 in 0.13 in 0.16 in (1999)
Month to date precipitation 2.54 2.84  
Year to date precipitation 8.99 10.64  
Sea Level Pressure  
Sea Level Pressure 30.04 in    
Wind  
Wind Speed 12 mph (NNE)    
Max Wind Speed 23 mph    
Max Gust Speed 40 mph    
Visibility 9 miles    
Events Rain    
T = Trace of Precipitation, MM = Missing Value Source: NWS Daily Summary

Daily Weather History Graph

Daily Weather History Graph

Search for Another Location

Airport:

Trip Planner

Search our weather history database for the weather conditions in past years. The results will help you decide how hot, cold, wet, or windy it might be!

Date:

Astronomy

May. 23, 2013 Rise Set
Actual Time 5:23 AM CDT 8:13 PM CDT
Civil Twilight 4:50 AM CDT 8:46 PM CDT
Nautical Twilight 4:09 AM CDT 9:28 PM CDT
Astronomical Twilight 3:21 AM CDT 10:16 PM CDT
Moon 6:44 PM CDT (5/23) 4:10 AM CDT (5/23)
Length of Visible Light 15h 56m
Length of Day
14h 50m
Waxing Gibbous, 97% of the Moon is Illuminated
May 23
Waxing Gibbous
May 24
Full
May 31
Last Quarter
Jun 8
New
Jun 16
First Quarter

Hourly Weather History & Observations

Time (CDT) Temp. Windchill Dew Point Humidity Pressure Visibility Wind Dir Wind Speed Gust Speed Precip Events Conditions
12:52 AM 52.0 °F - 50.0 °F 93% 29.78 in 4.0 mi NNE 4.6 mph - N/A   Overcast
1:48 AM 51.8 °F - 50.0 °F 94% 29.79 in 5.0 mi North 8.1 mph - 0.00 in Rain Light Rain
1:52 AM 52.0 °F - 50.0 °F 93% 29.79 in 4.0 mi North 10.4 mph - 0.00 in Rain Light Rain
2:52 AM 53.1 °F - 50.0 °F 89% 29.80 in 9.0 mi NNE 5.8 mph - 0.00 in   Overcast
3:52 AM 53.1 °F - 51.1 °F 93% 29.81 in 8.0 mi North 6.9 mph - N/A   Overcast
4:12 AM 53.6 °F - 51.8 °F 94% 29.81 in 10.0 mi North 5.8 mph - N/A   Overcast
4:33 AM 53.6 °F - 51.8 °F 94% 29.82 in 6.0 mi North 10.4 mph - N/A   Overcast
4:52 AM 53.1 °F - 51.1 °F 93% 29.83 in 5.0 mi North 10.4 mph - 0.00 in Rain Light Rain
5:52 AM 51.1 °F - 46.9 °F 86% 29.86 in 10.0 mi North 12.7 mph 20.7 mph 0.00 in   Overcast
6:52 AM 50.0 °F - 46.9 °F 89% 29.90 in 10.0 mi North 11.5 mph 20.7 mph 0.01 in Rain Light Rain
7:52 AM 48.9 °F - 46.0 °F 90% 29.94 in 10.0 mi North 17.3 mph 24.2 mph 0.01 in   Overcast
8:52 AM 48.0 °F - 45.0 °F 89% 29.99 in 6.0 mi North 12.7 mph 23.0 mph 0.01 in   Overcast
9:52 AM 48.0 °F - 44.1 °F 86% 30.01 in 9.0 mi North 13.8 mph 23.0 mph N/A   Overcast
10:52 AM 48.0 °F - 42.1 °F 80% 30.04 in 10.0 mi North 12.7 mph 26.5 mph N/A   Overcast
10:59 AM 48.2 °F - 42.8 °F 82% 30.03 in 10.0 mi North 13.8 mph 25.3 mph N/A   Overcast
11:52 AM 48.0 °F - 41.0 °F 77% 30.07 in 10.0 mi North 16.1 mph 28.8 mph N/A   Overcast
12:52 PM 50.0 °F - 39.9 °F 68% 30.09 in 10.0 mi NNE 12.7 mph 21.9 mph N/A   Overcast
1:52 PM 52.0 °F - 39.9 °F 63% 30.12 in 10.0 mi NNE 10.4 mph 23.0 mph N/A   Overcast
2:52 PM 52.0 °F - 39.9 °F 63% 30.13 in 10.0 mi NNE 13.8 mph - N/A   Overcast
3:52 PM 51.1 °F - 41.0 °F 68% 30.17 in 10.0 mi NE 13.8 mph 20.7 mph N/A   Mostly Cloudy
4:05 PM 51.8 °F - 39.2 °F 62% 30.17 in 10.0 mi NE 17.3 mph 20.7 mph N/A   Scattered Clouds
4:52 PM 51.1 °F - 39.9 °F 66% 30.19 in 10.0 mi NE 13.8 mph 21.9 mph N/A   Clear
5:52 PM 50.0 °F - 37.9 °F 63% 30.21 in 10.0 mi NE 13.8 mph 19.6 mph N/A   Clear
6:52 PM 46.9 °F - 35.1 °F 63% 30.24 in 10.0 mi NNE 15.0 mph 21.9 mph N/A   Clear
7:52 PM 46.0 °F 41.4 °F 34.0 °F 63% 30.26 in 10.0 mi NNE 9.2 mph - N/A   Clear
8:52 PM 44.1 °F 39.0 °F 34.0 °F 68% 30.27 in 10.0 mi NNE 9.2 mph - N/A   Clear
9:52 PM 43.0 °F 38.8 °F 34.0 °F 71% 30.30 in 10.0 mi NNE 6.9 mph - N/A   Clear
10:52 PM 43.0 °F 38.2 °F 34.0 °F 71% 30.31 in 10.0 mi NNE 8.1 mph - N/A   Clear
11:52 PM 43.0 °F 36.8 °F 34.0 °F 71% 30.32 in 10.0 mi NNE 11.5 mph - N/A   Clear